Theta_e
325 324 324 324 323 323 322 324 325 325 325 325 326 327 326 325 323 309 303 310 316 330 326 312 306 305 304 304 304 301 293 290 289 291 291 294 294 295 295 293 293 294 293 295 296
324 323 323 323 323 323 323 323 324 325 325 325 325 326 326 324 311 305 318 325 331 329 306 302 301 303 300 300 301 297 291 292 293 293 292 294 293 294 293 291 290 291 293 294 292
323 322 322 322 322 323 322 323 323 324 324 324 325 326 324 319 305 304 323 330 329 326 309 303 302 302 299 298 297 295 290 294 296 296 296 294 293 294 292 289 290 290 290 290 290
322 321 321 321 321 322 321 322 323 323 324 324 324 325 323 311 296 306 326 328 328 311 307 304 302 298 295 295 298 292 296 296 298 297 295 294 294 293 292 291 294 292 291 289 288
320 320 320 320 321 321 320 321 322 323 323 323 324 324 313 303 302 308 321 316 307 306 303 301 298 297 294 294 296 293 295 296 296 296 294 295 292 293 290 291 293 292 290 288 287
318 319 319 319 320 320 319 320 322 322 322 323 324 321 306 298 307 312 307 306 304 304 302 301 298 299 295 296 293 294 295 296 296 295 294 293 292 294 292 291 291 290 288 287 288
318 319 318 318 319 320 318 319 322 322 322 323 324 315 305 301 306 309 306 304 303 302 302 300 300 298 297 294 297 294 291 293 293 294 293 293 290 291 293 291 290 288 287 288 288
318 319 318 318 319 319 318 319 320 322 323 323 323 311 300 308 307 309 307 304 303 302 303 301 301 299 296 296 295 290 289 287 293 294 294 291 287 292 293 290 288 287 285 288 288
317 318 318 318 318 318 317 318 320 322 321 320 311 307 298 312 307 309 305 301 302 302 301 302 301 296 295 291 287 287 284 285 287 294 291 290 287 291 292 290 287 285 286 287 285
318 318 318 318 318 318 317 319 319 317 314 311 307 300 302 302 307 307 304 302 300 300 301 299 295 291 290 287 284 283 282 283 283 289 289 288 288 290 291 289 288 285 284 283 282
318 318 318 318 318 318 314 302 301 300 301 299 298 300 302 307 306 304 302 300 301 298 294 296 291 289 291 288 287 286 284 283 285 290 288 288 289 291 290 288 284 282 282 281 282
319 318 317 317 318 317 304 296 298 299 294 299 300 302 305 304 298 301 301 296 296 294 293 293 289 293 293 290 288 286 285 283 287 288 287 286 286 289 290 289 287 284 281 281 281
319 317 317 317 316 306 299 299 307 304 292 296 301 301 303 302 298 298 297 296 293 292 292 290 292 292 290 287 286 285 284 283 284 285 285 283 281 286 285 286 286 285 283 281 281
318 317 316 315 305 300 300 305 307 303 287 291 295 300 299 299 294 300 298 296 294 293 291 290 291 290 288 287 288 283 285 285 284 281 277 281 276 280 282 283 282 282 280 280 280
318 317 314 313 296 299 302 307 304 298 276 291 297 302 300 295 296 296 298 295 293 293 292 291 287 287 286 287 288 285 285 284 282 280 277 278 276 279 280 279 280 280 279 279 279
317 316 311 308 299 302 305 302 298 287 279 291 296 294 293 294 295 296 295 295 293 289 288 290 289 288 288 289 288 288 285 283 280 278 273 278 277 276 277 282 281 280 279 279 279
317 315 307 305 298 305 304 297 283 280 289 290 292 294 292 291 292 293 291 288 289 286 285 286 286 287 289 285 287 285 280 277 274 271 275 276 275 283 282 282 284 281 279 279 279
317 313 307 306 305 304 299 291 279 284 288 293 292 291 290 292 291 291 288 287 289 288 283 283 282 285 288 285 284 283 281 277 271 271 278 277 275 279 279 280 284 283 280 278 278
314 305 306 305 305 303 289 282 284 287 292 292 290 286 287 290 290 288 286 286 290 289 288 281 281 283 283 284 284 281 278 281 275 262 266 274 277 281 278 277 277 278 278 278 278
308 307 305 307 305 296 284 287 288 293 294 292 287 290 286 289 287 286 285 288 289 290 289 286 281 281 280 282 280 281 282 275 274 269 266 274 275 279 275 275 276 276 277 277 278
307 299 301 306 302 290 285 285 289 294 295 292 289 288 289 288 287 284 287 289 290 286 286 283 284 279 279 278 280 276 277 277 277 278 272 271 279 279 279 279 276 277 278 277 278
303 293 300 306 294 287 288 287 292 291 294 293 291 291 290 290 286 286 287 291 290 287 284 285 281 278 278 279 279 279 279 280 274 273 276 274 278 280 281 281 280 278 278 278 279
298 293 302 301 288 289 287 290 292 290 291 291 290 292 292 289 286 289 291 291 288 288 284 284 280 274 278 276 276 276 276 279 278 278 275 273 278 280 279 278 280 277 277 279 278
295 288 296 298 295 289 289 289 289 292 292 291 291 291 290 288 291 287 287 286 286 286 292 290 281 281 281 283 279 275 275 277 279 276 278 278 280 284 283 278 276 277 278 277 277
298 291 293 288 290 292 291 289 288 288 291 292 290 290 290 287 288 287 288 282 282 287 284 284 279 279 284 285 280 282 283 276 277 279 278 281 282 286 288 284 278 278 277 276 276
299 295 293 287 290 291 291 288 288 288 289 289 289 290 291 288 289 286 290 283 285 280 279 280 278 279 279 282 280 279 282 281 281 281 281 281 281 288 289 282 276 277 277 277 276
307 301 298 294 288 288 288 289 289 292 292 293 292 291 289 291 294 294 291 290 289 282 278 277 277 277 278 280 278 275 280 280 282 284 282 276 282 287 284 278 276 276 277 278 277
Wind_Speed
16 17 18 18 16 15 15 15 15 14 11 11 11 9 9 10 5 6 5 4 6 13 8 7 3 5 2 2 2 3 5 1 1 4 3 2 3 4 3 8 6 5 5 10 7
16 17 18 18 17 16 15 14 14 13 11 10 8 7 7 8 2 5 2 8 10 8 4 7 6 6 3 0 2 5 4 4 1 3 3 1 1 7 6 3 5 9 7 6 5
15 17 18 19 18 17 16 14 13 12 11 10 8 7 7 6 2 3 4 8 8 4 2 2 3 1 3 2 1 2 3 3 1 2 2 3 1 1 12 4 8 14 12 7 8
16 16 18 19 20 19 17 15 13 14 11 9 7 6 6 1 1 2 7 8 10 4 1 3 5 4 3 3 2 3 1 1 5 1 3 4 1 3 2 1 13 16 14 8 10
16 16 17 18 19 20 19 16 14 12 10 7 6 3 1 2 4 1 7 7 4 4 5 4 5 2 2 3 4 1 4 2 3 5 4 2 2 3 4 7 14 14 10 10 8
18 17 17 18 20 21 20 19 14 12 9 5 4 2 2 2 4 2 3 3 5 5 4 5 3 2 1 2 0 1 3 6 4 1 2 4 4 6 5 7 12 13 10 9 10
17 18 17 18 19 21 22 21 17 13 7 3 1 1 2 4 1 2 2 2 1 2 1 1 2 2 2 2 2 2 4 5 4 4 4 2 6 9 14 11 13 11 10 9 8
15 17 17 18 20 22 23 23 19 14 2 2 2 1 3 0 0 1 1 2 1 1 2 1 2 3 2 2 3 2 3 2 3 5 3 4 11 5 17 16 13 10 8 8 7
15 15 16 18 20 22 24 24 19 5 5 4 2 2 3 1 2 2 1 2 0 3 2 1 2 3 4 3 5 5 3 5 6 9 3 5 9 3 14 14 12 9 9 8 6
10 14 16 17 19 22 25 20 10 2 2 2 1 3 2 3 1 1 1 1 2 3 1 1 5 3 4 4 4 5 5 6 6 4 4 6 14 6 13 11 16 11 9 8 8
10 12 14 17 18 21 13 6 8 5 8 4 3 3 1 3 1 2 1 1 1 3 1 3 3 4 8 6 4 3 5 8 5 5 4 14 18 18 11 8 8 10 10 9 9
13 12 13 16 18 19 3 5 2 1 9 2 3 3 3 2 2 3 1 5 4 5 1 6 5 5 4 4 4 5 6 8 10 3 4 9 13 13 10 14 20 17 13 13 8
12 11 15 17 20 4 3 3 1 1 2 6 3 2 2 5 4 5 1 3 4 4 5 6 3 7 4 3 4 5 6 6 8 5 6 9 8 21 4 5 10 13 12 9 11
11 11 12 21 2 1 1 1 2 2 5 6 3 2 3 2 2 1 1 2 2 7 5 6 2 5 5 5 7 6 3 4 4 4 4 4 12 4 7 9 11 16 12 11 10
10 10 10 4 4 0 1 2 3 3 4 5 3 2 2 5 5 2 1 3 5 6 5 8 6 5 6 7 8 8 1 4 3 4 4 6 6 7 4 9 14 13 12 9 9
10 9 6 2 2 1 3 3 2 6 10 4 5 6 4 4 3 3 1 3 2 3 2 7 1 5 7 2 2 2 3 4 3 3 2 8 9 6 8 12 12 10 11 12 9
10 8 2 1 2 2 3 3 4 6 4 6 6 6 4 6 4 6 6 5 7 1 5 1 5 1 2 3 3 2 5 6 6 2 9 3 5 16 6 8 15 23 16 12 9
9 5 4 4 1 2 2 5 8 8 8 2 3 3 7 8 5 6 5 4 5 3 2 4 8 9 5 5 7 5 7 7 8 5 14 5 11 8 5 8 7 12 14 10 9
8 2 3 4 6 3 4 7 13 9 8 9 3 3 5 4 3 5 8 7 9 11 9 6 8 2 1 2 4 5 6 2 1 1 4 7 9 7 3 2 6 13 13 12 9
3 3 6 5 8 5 3 18 9 8 6 5 13 11 9 7 7 8 8 6 6 12 3 4 7 2 2 1 1 4 4 3 1 3 9 8 10 14 8 12 8 11 14 10 8
2 3 3 11 5 2 10 10 9 9 5 8 9 7 8 9 9 8 8 5 7 5 5 6 5 2 4 9 12 2 3 3 2 5 6 5 17 6 15 18 20 18 15 12 10
3 6 2 9 7 5 14 9 6 6 10 7 4 9 12 10 7 9 15 12 11 11 12 8 6 7 15 1 2 2 9 11 6 7 5 4 20 5 11 11 18 16 12 10 8
4 4 2 2 11 13 5 7 13 8 12 9 10 9 6 9 6 11 14 4 12 13 13 10 5 3 8 2 3 6 6 6 1 1 14 10 16 2 4 8 13 15 12 11 9
5 5 5 6 7 9 13 14 14 10 18 7 9 6 5 9 13 8 5 4 3 4 7 12 6 10 18 13 7 7 9 11 17 13 18 27 38 27 16 8 7 9 11 10 9
7 9 9 9 18 20 14 8 23 15 9 20 12 19 12 14 15 13 8 1 3 4 4 8 11 8 22 15 4 16 21 16 24 27 22 40 31 33 24 14 17 18 12 10 7
11 8 3 2 4 26 28 32 27 12 14 18 24 18 24 25 22 16 21 8 10 3 7 4 8 6 18 10 10 23 23 22 27 33 27 35 38 42 25 4 8 16 15 12 8
10 2 10 16 12 15 29 33 32 22 18 23 21 20 22 30 26 19 6 6 8 15 12 9 6 5 22 4 4 19 24 28 25 25 19 23 41 29 16 10 13 15 16 14 12
Wind_Direction
5 1 358 355 353 352 349 345 340 343 351 349 349 344 337 330 324 39 40 282 298 312 326 286 11 347 61 18 25 101 62 259 262 156 198 332 138 30 348 81 48 1 105 125 145
360 357 355 352 348 347 346 344 337 340 346 342 343 342 335 328 68 51 237 292 293 312 359 19 352 355 5 317 15 86 104 215 329 131 169 301 125 145 96 82 53 84 64 92 107
356 353 352 348 344 342 342 343 339 337 343 337 335 343 329 320 25 297 310 310 309 294 233 302 297 320 14 14 17 157 169 191 59 100 177 170 235 281 131 206 197 162 145 148 117
351 349 346 345 341 338 338 337 339 332 344 337 329 336 342 282 255 270 320 334 327 332 319 16 16 28 19 334 348 346 318 150 181 199 177 184 261 89 249 245 140 147 151 148 132
346 342 341 341 337 336 333 333 333 327 337 335 322 352 64 86 237 262 342 353 14 358 47 33 51 357 12 340 344 354 335 34 157 163 153 160 198 181 118 125 126 142 144 139 131
344 339 338 339 335 332 330 326 327 318 331 326 319 348 115 219 134 56 353 26 30 14 13 38 107 139 123 312 26 343 326 289 295 161 203 180 195 120 208 153 139 144 153 155 149
341 335 334 335 333 330 326 321 320 313 324 294 354 271 151 225 189 80 76 114 43 40 33 35 113 147 156 349 325 7 330 325 238 212 257 143 278 221 164 169 163 166 164 156 147
336 330 331 331 330 327 323 317 319 309 331 182 134 144 226 242 350 326 341 112 77 48 86 98 97 106 124 284 32 63 62 356 269 165 283 132 261 208 166 166 178 178 167 151 154
330 326 327 329 329 325 321 314 311 311 137 142 128 134 264 108 168 217 191 154 21 98 50 80 60 86 28 60 6 4 232 218 299 202 138 181 279 197 172 180 181 184 173 165 144
320 320 324 326 327 326 320 307 286 347 112 146 19 45 143 215 165 259 245 134 112 103 67 58 47 61 32 69 260 253 287 265 227 241 202 228 263 267 200 189 190 182 175 170 165
306 315 321 322 325 327 342 359 14 343 38 218 221 256 80 302 92 212 196 119 101 54 9 10 44 255 249 205 215 231 229 237 233 227 222 231 241 245 189 207 194 191 182 179 177
304 316 318 318 322 323 34 70 81 250 303 340 229 256 214 160 276 208 44 176 152 195 91 14 234 213 170 224 242 240 270 264 287 231 192 266 244 247 209 211 199 184 192 181 169
303 313 317 320 319 28 70 145 69 109 277 298 221 187 191 148 214 201 195 170 162 163 190 171 250 123 174 233 243 227 214 251 235 346 288 296 244 242 236 239 182 189 181 178 174
297 304 319 324 21 310 87 231 104 86 48 265 250 238 133 171 252 235 339 162 202 193 175 228 214 162 201 239 173 272 207 261 287 6 250 355 294 237 214 239 192 179 178 176 175
284 291 323 12 297 87 118 130 103 62 349 249 193 152 147 166 135 217 302 49 197 185 128 253 180 188 200 221 162 235 73 261 242 250 346 240 254 253 136 238 207 188 183 185 180
273 282 331 327 349 248 112 86 55 53 248 239 143 179 155 187 198 110 150 52 51 153 258 245 3 181 207 117 152 76 335 293 59 117 224 227 198 215 192 215 191 187 190 186 179
250 241 262 43 252 135 104 63 40 176 277 223 206 174 184 188 204 178 175 183 188 206 240 107 217 25 146 121 31 93 62 316 328 344 244 135 223 260 241 236 196 191 181 184 175
243 192 229 203 177 106 64 58 204 218 227 57 143 124 183 157 230 174 156 230 241 130 135 214 301 174 181 195 184 177 168 168 265 248 295 317 246 249 281 301 222 171 163 170 175
146 196 224 230 163 89 80 213 195 191 201 157 71 168 232 230 200 151 203 204 212 170 189 176 264 109 40 152 145 174 189 150 191 84 11 239 280 290 76 64 124 150 167 181 181
163 224 230 167 137 96 140 230 217 203 156 149 187 182 189 203 177 181 189 201 219 188 155 215 284 214 171 157 45 163 155 77 355 284 270 258 273 250 203 211 178 186 193 190 189
155 237 248 138 103 134 217 225 223 248 193 176 207 214 199 184 196 194 218 234 202 169 150 144 173 185 121 207 180 152 202 204 192 163 224 309 276 211 197 203 190 200 193 186 189
198 233 194 152 187 210 222 190 216 219 218 258 219 212 201 185 206 212 213 203 168 156 169 199 164 206 211 222 332 190 197 174 174 220 213 227 262 213 207 194 196 200 184 186 184
222 212 257 233 213 216 244 237 227 190 196 210 231 192 186 188 245 207 237 225 158 157 171 179 212 335 315 57 356 218 209 201 264 56 229 240 268 242 142 174 200 185 172 182 180
137 219 179 222 228 219 216 232 223 208 231 199 209 167 161 224 222 255 226 232 225 222 152 150 186 184 239 238 135 204 197 208 215 235 259 240 263 263 247 196 181 180 183 183 181
191 214 185 203 219 220 216 229 221 218 210 204 231 214 189 232 223 230 218 236 341 226 179 171 227 197 251 263 186 265 253 190 219 235 235 263 263 264 267 230 196 193 180 171 178
201 192 179 234 174 209 219 232 233 223 181 214 223 202 217 230 210 225 220 173 196 163 173 199 254 165 267 204 225 258 258 239 242 248 249 253 268 265 277 205 151 182 174 174 184
210 231 202 211 198 197 220 230 233 221 236 229 223 225 225 227 229 246 190 188 202 167 186 165 170 139 257 121 41 272 237 231 245 242 230 239 244 268 263 197 179 173 171 176 179